Voltar ao catálogo

GEMS2-AMETHYST

AtivoCiênciaSSO
NORAD 68505·PAYLOAD·🇺🇸 United States

Lançado Mar 30, 2026 de Vandenberg Space Force Base

Loading…

Próximas Passagens (próximas 24 horas)

TLE

AtualizadoSource: Space-Track

Época: Sep 14, 2026, 03:01 UTC

1 68505U 26067CT  26257.12587230  .00003120  00000-0  31545-3 0  9992
2 68505  97.7696 213.9013 0006880 103.2978 256.9008 14.91709173 24975

Acompanhe GEMS2-AMETHYST em tempo real com AllMySat

Download on the App Store